Location: Kimberly
(42.5380°N, 114.3640°W)
Time: 21:12:48
(UTC-06:00)

Amateur Radio Satellites - All Passes

Search period start: 22 May 2017 20:42
Search period end: 23 May 2017 20:42
Location: Kimberly, 42.5380°N, 114.3640°W

Satellite Date Start Highest point End Downlink Frequencies (MHz)
Time Altitude Azimuth
AAUSAT CUBESAT 2 22 May 20:53:32 20:57:41 73° 76° (ENE) 21:01:53 437.432
SEEDS 22 May 21:16:29 21:20:12 30° 264° (W) 21:23:58 437.485
Oscar 11 22 May 21:20:06 21:24:19 54° 73° (ENE) 21:28:34 .
EO-88 22 May 21:29:45 21:31:10 12° 64° (ENE) 21:32:36 145.990 - 145.960
STRAND 1 22 May 21:38:51 21:43:52 56° 288° (WNW) 21:48:53 437.568
PCSat 22 May 21:39:42 21:45:05 67° 302° (WNW) 21:50:31 145.827
AO-73 22 May 21:41:23 21:45:32 71° 258° (WSW) 21:49:48 145.935
CUBEBUG 2 22 May 21:47:31 21:50:28 19° 267° (W) 21:53:28 437.445
ZACube-1 22 May 21:52:54 21:56:55 46° 261° (W) 22:01:02 437.345
DELFI C3 22 May 21:52:56 21:56:32 33° 71° (ENE) 22:00:07 145.870
Tancredo 1 22 May 21:53:55 21:55:58 17° 133° (SE) 21:58:02 437.200
UWE-3 22 May 22:07:04 22:10:04 19° 267° (W) 22:13:08 435.000/436.395/437.385
M-CUBED/EXP-1 PRIME 22 May 22:30:17 22:33:38 67° 289° (WNW) 22:36:50 437.505
FO-29 22 May 22:40:49 22:45:54 25° 94° (E) 22:51:24 435.910
Oscar 11 22 May 22:58:32 23:00:47 14° 270° (W) 23:03:02 .
EO-88 22 May 23:00:53 23:04:24 48° 260° (W) 23:07:59 145.990 - 145.960
TIGRISAT 22 May 23:12:29 23:16:40 35° 97° (E) 23:20:53 435.000
ISS 22 May 23:18:06 23:21:23 77° 145° (SE) 23:24:40 437.550
PCSat 22 May 23:26:44 23:29:33 14° 323° (NW) 23:32:22 145.827
Tancredo 1 22 May 23:28:26 23:31:28 55° 330° (NNW) 23:34:30 437.200
DELFI C3 22 May 23:28:29 23:31:23 19° 267° (W) 23:34:17 145.870
PRISM 22 May 23:34:07 23:38:13 82° 103° (ESE) 23:42:16 437.425
UNISAT 6 22 May 23:42:38 23:47:13 79° 103° (ESE) 23:51:51 437.425
VELOX 1 22 May 23:48:15 23:50:12 13° 61° (ENE) 23:52:08 145.980
LO-87 22 May 23:58:19 00:01:52 77° 258° (WSW) 00:05:26 145.935 - 145.965
AIST 2D 23 May 00:02:35 00:04:35 14° 92° (E) 00:06:35 435.315
ESTCUBE 1 23 May 00:07:06 00:11:36 71° 74° (ENE) 00:16:08 437.505/2401.250
SPROUT 23 May 00:13:34 00:16:46 21° 66° (ENE) 00:19:58 437.525
POLYITAN 1 23 May 00:19:00 00:20:52 13° 90° (E) 00:22:44 437.675
NANOSAT C BR1 23 May 00:19:09 00:20:24 11° 90° (E) 00:21:38 145.865
SO-50 23 May 00:24:48 00:29:21 68° 121° (ESE) 00:33:53 436.795
FO-29 23 May 00:25:07 00:31:10 59° 288° (WNW) 00:38:00 435.910
QB50P2 23 May 00:26:37 00:29:24 17° 92° (E) 00:32:11 145.880/145.840
DUCHIFAT 1 23 May 00:31:22 00:33:35 14° 91° (E) 00:35:49 145.980
DX 1 23 May 00:37:08 00:39:38 15° 63° (ENE) 00:42:09 434.975-435.025
UKube-1 23 May 00:39:43 00:40:53 11° 60° (ENE) 00:42:04 .
TIGRISAT 23 May 00:49:30 00:53:10 25° 293° (WNW) 00:56:54 435.000
ISS 23 May 00:55:26 00:58:10 24° 343° (NNW) 01:00:55 437.550
EO-79 23 May 01:04:24 01:08:24 39° 98° (E) 01:12:23 145.935-145.965
Tancredo 1 23 May 01:05:34 01:07:44 17° 349° (N) 01:09:55 437.200
BUGSAT 1 23 May 01:08:27 01:08:48 10° 90° (E) 01:09:10 437.445
UNISAT 6 23 May 01:21:32 01:23:18 12° 299° (WNW) 01:25:06 437.425
VELOX 1 23 May 01:21:40 01:26:04 70° 258° (WSW) 01:30:29 145.980
AIST 2D 23 May 01:34:39 01:37:55 34° 288° (WNW) 01:41:10 435.315
50 SAT 23 May 01:43:24 01:46:50 65° 259° (WSW) 01:50:17 437.505
ESTCUBE 1 23 May 01:47:21 01:48:52 11° 271° (W) 01:50:25 437.505/2401.250
SPROUT 23 May 01:48:35 01:52:27 34° 263° (W) 01:56:21 437.525
NANOSAT C BR1 23 May 01:52:18 01:56:31 65° 286° (WNW) 02:00:43 145.865
POLYITAN 1 23 May 01:52:48 01:57:00 58° 287° (WNW) 02:01:11 437.675
QB50P2 23 May 02:01:21 02:05:23 43° 288° (WNW) 02:09:25 145.880/145.840
YUBILEINY 23 May 02:04:56 02:13:09 49° 89° (E) 02:21:27 435.215
DUCHIFAT 1 23 May 02:05:27 02:09:33 51° 287° (WNW) 02:13:39 145.980
SO-50 23 May 02:07:01 02:10:16 19° 320° (NW) 02:13:29 436.795
Gurwin Techsat 1B 23 May 02:10:06 02:12:05 12° 88° (E) 02:14:05 435.225
DX 1 23 May 02:11:06 02:15:23 55° 259° (W) 02:19:39 434.975-435.025
UKube-1 23 May 02:11:58 02:16:17 79° 258° (WSW) 02:20:36 .
FO-29 23 May 02:14:38 02:15:13 10° 306° (NW) 02:15:48 435.910
RS-15 23 May 02:15:08 02:24:22 27° 101° (E) 02:33:45 29.354- 29.394
ISS 23 May 02:33:17 02:35:30 17° 3° (N) 02:37:43 437.550
BUGSAT 1 23 May 02:40:30 02:44:35 67° 285° (WNW) 02:48:41 437.445
EO-79 23 May 02:40:52 02:43:53 19° 294° (WNW) 02:46:53 145.935-145.965
Tancredo 1 23 May 02:42:18 02:44:23 16° 9° (N) 02:46:27 437.200
ITUPSAT 1 23 May 02:46:23 02:50:04 23° 65° (ENE) 02:53:47 437.325
Oscar 19 23 May 03:03:28 03:08:37 64° 102° (ESE) 03:13:43 437.125/150
BEESAT 23 May 03:21:41 03:26:16 50° 71° (ENE) 03:30:52 436.000
MOZHAYETS 4 23 May 03:40:37 03:44:53 40° 70° (ENE) 03:49:13
Gurwin Techsat 1B 23 May 03:47:21 03:52:42 85° 285° (WNW) 03:58:00 435.225
ITAMSAT 1 23 May 03:57:12 04:00:36 17° 92° (E) 04:03:58 435.822/435.867
YUBILEINY 23 May 04:02:13 04:10:08 38° 289° (WNW) 04:18:09 435.215
ISS 23 May 04:09:44 04:12:43 31° 23° (NNE) 04:15:42 437.550
CUBESAT XI-V 23 May 04:16:47 04:20:04 19° 64° (ENE) 04:23:21 437.345
Tancredo 1 23 May 04:17:44 04:20:43 46° 28° (NNE) 04:23:40 437.200
AO-7 23 May 04:20:09 04:27:26 32° 96° (E) 04:34:40 .
RS-15 23 May 04:23:09 04:35:19 87° 302° (WNW) 04:47:47 29.354- 29.394
ITUPSAT 1 23 May 04:23:09 04:27:39 41° 262° (W) 04:32:10 437.325
Oscar 19 23 May 04:44:04 04:47:24 18° 299° (WNW) 04:50:44 437.125/150
PCSat 23 May 04:44:19 04:48:22 21° 43° (NE) 04:52:23 145.827
BEESAT 23 May 05:01:06 05:04:18 18° 268° (W) 05:07:31 436.000
KKS-1 23 May 05:03:22 05:07:36 47° 71° (ENE) 05:11:51 437.445
O/OREOS (USA 219) 23 May 05:17:39 05:21:55 39° 106° (ESE) 05:26:12 437.305
MOZHAYETS 4 23 May 05:18:45 05:22:11 21° 267° (W) 05:25:40
Gurwin Techsat 1B 23 May 05:29:40 05:31:48 12° 303° (WNW) 05:33:57 435.225
ITAMSAT 1 23 May 05:35:19 05:40:26 60° 288° (WNW) 05:45:33 435.822/435.867
STARS 23 May 05:45:38 05:49:54 57° 73° (ENE) 05:54:11 437.465
ISS 23 May 05:46:11 05:49:16 40° 221° (SW) 05:52:21 437.550
CUBESAT XI-V 23 May 05:52:30 05:57:03 49° 261° (W) 06:01:39 437.345
Tancredo 1 23 May 05:53:55 05:56:17 20° 225° (SW) 05:58:38 437.200
AO-85 23 May 06:03:35 06:07:21 33° 117° (ESE) 06:10:59 145.980
AO-7 23 May 06:12:25 06:20:34 60° 295° (WNW) 06:28:43 .
BEESAT 3 23 May 06:20:18 06:22:28 14° 110° (ESE) 06:24:41 437.485
PCSat 23 May 06:26:55 06:32:20 74° 243° (WSW) 06:37:44 145.827
RS-15 23 May 06:38:48 06:49:45 36° 330° (NNW) 07:00:48 29.354- 29.394
KKS-1 23 May 06:41:33 06:44:24 17° 268° (W) 06:47:14 437.445
XW-2D 23 May 06:56:32 06:59:16 18° 93° (E) 07:01:58 145.860 - 145.880
O/OREOS (USA 219) 23 May 06:57:48 07:01:28 23° 304° (NW) 07:05:08 437.305
CUTE-I 23 May 07:02:27 07:06:34 22° 93° (E) 07:10:39 437.470
XW-2B 23 May 07:04:08 07:07:09 22° 94° (E) 07:10:08 145.730 - 145.750
SO-50 23 May 07:16:32 07:18:38 13° 35° (NE) 07:20:45 436.795
STRAND 1 23 May 07:17:08 07:21:26 29° 66° (ENE) 07:25:46 437.568
XW-2C 23 May 07:17:13 07:20:42 31° 97° (E) 07:24:09 145.795 - 145.815
XW-2F 23 May 07:19:17 07:22:45 31° 97° (E) 07:26:10 145.980 - 146.000
STARS 23 May 07:24:29 07:26:35 13° 269° (W) 07:28:42 437.465
BEESAT 2 23 May 07:27:06 07:30:29 27° 115° (ESE) 07:33:56 435.950
NUDT-PHONESAT 23 May 07:30:36 07:34:05 34° 97° (E) 07:37:31 437.300
KAITUO 1B 23 May 07:33:32 07:37:06 38° 98° (E) 07:40:38 145.475/437.950
M-CUBED/EXP-1 PRIME 23 May 07:43:21 07:45:59 16° 60° (ENE) 07:48:31 437.505
DOVE 4 23 May 07:43:43 07:47:50 70° 286° (WNW) 07:52:01 437.250
AO-85 23 May 07:44:20 07:47:46 25° 313° (NW) 07:51:06 145.980
LilacSat-2 23 May 07:50:33 07:54:28 87° 107° (ESE) 07:58:20 437.200
BEESAT 3 23 May 07:55:45 07:59:37 52° 307° (NW) 08:03:33 437.485
CUTE 1.7 + AOD 2 23 May 08:03:17 08:05:54 16° 91° (E) 08:08:29 437.475
HO-68 23 May 08:06:17 08:12:08 26° 93° (E) 08:17:56 435.675
AO-7 23 May 08:07:28 08:11:38 15° 316° (NW) 08:15:49 .
XW-2D 23 May 08:30:04 08:33:31 32° 289° (WNW) 08:36:56 145.860 - 145.880
AAUSAT CUBESAT 2 23 May 08:37:38 08:38:27 10° 89° (E) 08:39:17 437.432
XW-2B 23 May 08:38:02 08:41:18 27° 290° (WNW) 08:44:35 145.730 - 145.750
CUTE-I 23 May 08:41:44 08:46:50 49° 290° (WNW) 08:51:56 437.470
XW-2C 23 May 08:51:53 08:54:41 19° 293° (WNW) 08:57:28 145.795 - 145.815
XW-2F 23 May 08:53:54 08:56:40 19° 293° (WNW) 08:59:25 145.980 - 146.000
SO-50 23 May 08:55:24 08:59:55 72° 55° (NE) 09:04:25 436.795
STRAND 1 23 May 08:55:49 09:00:28 36° 263° (W) 09:05:10 437.568
RS-15 23 May 08:57:39 09:07:21 25° 5° (N) 09:16:53 29.354- 29.394
SEEDS 23 May 08:58:59 09:03:00 41° 98° (E) 09:06:57 437.485
XW-2A 23 May 09:01:47 09:05:12 65° 101° (E) 09:08:36 145.665 - 145.685
BEESAT 2 23 May 09:04:40 09:08:11 29° 312° (NW) 09:11:45 435.950
NUDT-PHONESAT 23 May 09:05:13 09:07:43 17° 294° (WNW) 09:10:13 437.300
KAITUO 1B 23 May 09:08:26 09:10:47 16° 294° (WNW) 09:13:08 145.475/437.950
M-CUBED/EXP-1 PRIME 23 May 09:15:51 09:20:06 51° 254° (WSW) 09:24:06 437.505
AO-73 23 May 09:28:54 09:32:24 22° 93° (E) 09:35:55 145.935
CUBEBUG 2 23 May 09:35:24 09:39:56 79° 102° (ESE) 09:44:35 437.445
CUTE 1.7 + AOD 2 23 May 09:37:52 09:41:58 46° 288° (WNW) 09:46:01 437.475
ZACube-1 23 May 09:40:08 09:44:11 31° 96° (E) 09:48:15 437.345
HO-68 23 May 09:53:12 10:00:17 62° 292° (WNW) 10:07:20 435.675
UWE-3 23 May 09:53:53 09:58:26 76° 102° (ESE) 10:03:04 435.000/436.395/437.385
NO-84 23 May 10:09:22 10:13:06 28° 129° (SE) 10:16:46 435.350 FM
AAUSAT CUBESAT 2 23 May 10:10:13 10:14:20 65° 286° (WNW) 10:18:24 437.432
TIGRISAT 23 May 10:12:01 10:15:44 31° 69° (ENE) 10:19:31 435.000
PRISM 23 May 10:23:31 10:27:36 62° 74° (ENE) 10:31:41 437.425
EO-88 23 May 10:30:20 10:32:06 13° 91° (E) 10:33:53 145.990 - 145.960
SEEDS 23 May 10:35:29 10:38:22 18° 295° (WNW) 10:41:14 437.485
SO-50 23 May 10:37:43 10:39:47 13° 251° (WSW) 10:41:50 436.795
FO-29 23 May 10:38:56 10:44:04 65° 73° (ENE) 10:49:16 435.910
UNISAT 6 23 May 10:41:59 10:46:13 72° 74° (ENE) 10:50:32 437.425
Oscar 11 23 May 10:42:23 10:46:46 79° 285° (WNW) 10:51:06 .
DELFI C3 23 May 11:03:29 11:07:19 48° 100° (E) 11:11:06 145.870
AO-73 23 May 11:04:33 11:08:44 38° 289° (WNW) 11:12:55 145.935
RS-15 23 May 11:12:38 11:24:16 44° 38° (NE) 11:35:23 29.354- 29.394
POLYITAN 1 23 May 11:13:19 11:14:30 11° 61° (ENE) 11:15:41 437.675
CUBEBUG 2 23 May 11:14:17 11:15:57 12° 298° (WNW) 11:17:38 437.445
ZACube-1 23 May 11:16:34 11:20:20 27° 292° (WNW) 11:24:08 437.345
QB50P2 23 May 11:20:31 11:22:48 15° 63° (ENE) 11:25:07 145.880/145.840
DUCHIFAT 1 23 May 11:24:46 11:26:20 12° 62° (ENE) 11:27:55 145.980
UWE-3 23 May 11:32:25 11:34:17 12° 298° (WNW) 11:36:11 435.000/436.395/437.385
HO-68 23 May 11:43:36 11:46:36 13° 311° (NW) 11:49:36 435.675
NO-84 23 May 11:46:23 11:50:36 49° 325° (NW) 11:54:37 435.350 FM
TIGRISAT 23 May 11:49:04 11:52:27 23° 266° (W) 11:55:55 435.000
EO-79 23 May 11:57:22 12:01:04 32° 69° (ENE) 12:04:48 145.935-145.965
ESTCUBE 1 23 May 12:00:25 12:02:48 14° 91° (E) 12:05:10 437.505/2401.250
PRISM 23 May 12:02:01 12:03:16 11° 270° (W) 12:04:30 437.425
EO-88 23 May 12:02:30 12:05:59 41° 287° (WNW) 12:09:27 145.990 - 145.960
AIST 2D 23 May 12:08:55 12:12:24 87° 77° (ENE) 12:15:57 435.315
YUBILEINY 23 May 12:14:24 12:21:26 25° 65° (ENE) 12:28:25 435.215
FO-29 23 May 12:27:01 12:29:45 14° 271° (W) 12:32:31 435.910
DELFI C3 23 May 12:39:38 12:41:40 14° 296° (WNW) 12:43:43 145.870
NANOSAT C BR1 23 May 12:44:31 12:48:40 83° 254° (WSW) 12:52:52 145.865
Oscar 19 23 May 12:44:46 12:47:24 14° 59° (ENE) 12:50:02 437.125/150
POLYITAN 1 23 May 12:45:30 12:49:40 73° 259° (WSW) 12:53:52 437.675
QB50P2 23 May 12:54:03 12:58:09 53° 260° (W) 13:02:17 145.880/145.840
DUCHIFAT 1 23 May 12:57:20 13:01:27 66° 258° (WSW) 13:05:37 145.980
LO-87 23 May 12:57:51 13:01:22 67° 284° (WNW) 13:04:53 145.935 - 145.965
VELOX 1 23 May 13:11:39 13:14:55 20° 94° (E) 13:18:10 145.980
RS-15 23 May 13:25:34 13:37:36 69° 244° (WSW) 13:49:01 29.354- 29.394
NO-84 23 May 13:26:10 13:28:58 17° 344° (NNW) 13:31:38 435.350 FM
BUGSAT 1 23 May 13:30:25 13:34:26 89° 57° (ENE) 13:38:27 437.445
Gurwin Techsat 1B 23 May 13:30:52 13:34:54 23° 63° (ENE) 13:38:57 435.225
SPROUT 23 May 13:33:09 13:37:04 35° 97° (E) 13:40:59 437.525
EO-79 23 May 13:33:37 13:36:52 22° 266° (W) 13:40:09 145.935-145.965
AO-7 23 May 13:34:19 13:36:46 12° 40° (NE) 13:39:14 .
ESTCUBE 1 23 May 13:35:31 13:39:58 57° 287° (WNW) 13:44:21 437.505/2401.250
O/OREOS (USA 219) 23 May 13:49:46 13:51:07 11° 48° (NE) 13:52:27 437.305
DX 1 23 May 13:58:59 14:02:26 23° 95° (E) 14:05:52 434.975-435.025
UKube-1 23 May 13:59:25 14:02:04 16° 92° (E) 14:04:42 .
YUBILEINY 23 May 14:10:19 14:19:07 74° 266° (W) 14:27:53 435.215
Oscar 19 23 May 14:20:48 14:26:00 83° 256° (WSW) 14:31:14 437.125/150
AO-85 23 May 14:33:25 14:37:07 35° 50° (NE) 14:40:59 145.980
BEESAT 3 23 May 14:35:24 14:37:42 15° 40° (NE) 14:39:59 437.485
50 SAT 23 May 14:38:27 14:41:51 69° 285° (WNW) 14:45:12 437.505
VELOX 1 23 May 14:47:26 14:51:29 37° 290° (WNW) 14:55:30 145.980
NO-84 23 May 15:05:47 15:07:51 14° 6° (N) 15:09:51 435.350 FM
Gurwin Techsat 1B 23 May 15:09:21 15:14:29 50° 260° (W) 15:19:40 435.225
SPROUT 23 May 15:09:32 15:12:46 21° 294° (WNW) 15:16:00 437.525
ITAMSAT 1 23 May 15:15:27 15:19:52 29° 66° (ENE) 15:24:17 435.822/435.867
AO-7 23 May 15:19:42 15:27:30 48° 62° (ENE) 15:35:19 .
BEESAT 23 May 15:23:11 15:24:54 12° 89° (E) 15:26:36 436.000
O/OREOS (USA 219) 23 May 15:26:43 15:31:17 86° 70° (ENE) 15:35:46 437.305
UKube-1 23 May 15:34:12 15:38:20 46° 289° (WNW) 15:42:26 .
DX 1 23 May 15:34:47 15:38:38 32° 291° (WNW) 15:42:29 434.975-435.025
RS-15 23 May 15:41:40 15:47:30 15° 266° (W) 15:53:14 29.354- 29.394
BEESAT 2 23 May 15:43:49 15:47:09 24° 46° (NE) 15:50:28 435.950
YUBILEINY 23 May 16:10:14 16:14:16 14° 286° (WNW) 16:18:19 435.215
BEESAT 3 23 May 16:11:46 16:15:48 75° 238° (WSW) 16:19:44 437.485
AO-85 23 May 16:14:07 16:17:21 23° 246° (WSW) 16:20:43 145.980
ITUPSAT 1 23 May 16:22:31 16:27:10 46° 99° (E) 16:31:47 437.325
NO-84 23 May 16:43:10 16:46:29 28° 27° (NNE) 16:49:34 435.350 FM
ITAMSAT 1 23 May 16:54:29 16:59:12 36° 263° (W) 17:03:58 435.822/435.867
BEESAT 23 May 16:58:24 17:03:12 76° 286° (WNW) 17:07:58 436.000
MOZHAYETS 4 23 May 17:11:26 17:16:07 87° 100° (E) 17:20:45
AO-7 23 May 17:12:39 17:20:19 41° 261° (W) 17:28:03 .
DOVE 4 23 May 17:14:32 17:16:43 13° 63° (ENE) 17:18:52 437.250
BEESAT 2 23 May 17:21:15 17:25:01 37° 244° (WSW) 17:28:43 435.950
XW-2D 23 May 17:40:19 17:41:14 11° 63° (ENE) 17:42:10 145.860 - 145.880
XW-2B 23 May 17:47:20 17:49:01 13° 64° (ENE) 17:50:42 145.730 - 145.750
CUBESAT XI-V 23 May 17:48:18 17:52:39 38° 97° (E) 17:56:57 437.345
XW-2C 23 May 17:59:48 18:02:22 18° 66° (ENE) 18:04:58 145.795 - 145.815
ITUPSAT 1 23 May 18:01:07 18:04:39 21° 296° (WNW) 18:08:11 437.325
XW-2F 23 May 18:01:27 18:04:01 18° 66° (ENE) 18:06:35 145.980 - 146.000
NUDT-PHONESAT 23 May 18:11:10 18:13:44 18° 67° (ENE) 18:16:18 437.300
KAITUO 1B 23 May 18:14:36 18:17:24 20° 68° (ENE) 18:20:14 145.475/437.950
NO-84 23 May 18:20:46 18:24:09 40° 228° (SW) 18:27:14 435.350 FM
CUTE-I 23 May 18:24:40 18:29:33 39° 68° (ENE) 18:34:27 437.470
KKS-1 23 May 18:29:38 18:34:05 87° 104° (ESE) 18:38:30 437.445
LilacSat-2 23 May 18:32:46 18:36:23 44° 73° (ENE) 18:40:05 437.200
HO-68 23 May 18:36:39 18:41:55 23° 56° (NE) 18:47:12 435.675
DOVE 4 23 May 18:49:15 18:53:57 68° 258° (WSW) 18:58:24 437.250
MOZHAYETS 4 23 May 18:51:11 18:52:33 11° 301° (WNW) 18:53:54
CUTE 1.7 + AOD 2 23 May 18:57:19 18:59:23 13° 63° (ENE) 19:01:26 437.475
STARS 23 May 19:10:11 19:14:35 80° 284° (WNW) 19:18:57 437.465
XW-2D 23 May 19:11:08 19:14:53 61° 259° (W) 19:18:41 145.860 - 145.880
XW-2B 23 May 19:19:04 19:22:45 50° 260° (W) 19:26:30 145.730 - 145.750
CUBESAT XI-V 23 May 19:26:09 19:29:47 23° 294° (WNW) 19:33:24 437.345
PCSat 23 May 19:29:30 19:31:37 12° 102° (ESE) 19:33:45 145.827
XW-2C 23 May 19:32:50 19:36:18 34° 263° (W) 19:39:49 145.795 - 145.815
XW-2A 23 May 19:34:06 19:36:46 22° 69° (ENE) 19:39:26 145.665 - 145.685
XW-2F 23 May 19:34:26 19:37:53 33° 263° (W) 19:41:23 145.980 - 146.000
NUDT-PHONESAT 23 May 19:44:05 19:47:24 31° 263° (W) 19:50:46 437.300
KAITUO 1B 23 May 19:47:58 19:51:14 28° 264° (W) 19:54:33 145.475/437.950
SEEDS 23 May 19:51:06 19:54:50 31° 70° (ENE) 19:58:36 437.485
CUTE-I 23 May 20:05:11 20:09:40 28° 265° (W) 20:14:11 437.470
LilacSat-2 23 May 20:09:01 20:10:55 13° 269° (W) 20:12:49 437.200
KKS-1 23 May 20:09:10 20:09:56 10° 301° (WNW) 20:10:42 437.445
HO-68 23 May 20:21:42 20:28:52 78° 254° (WSW) 20:36:07 435.675
AO-73 23 May 20:25:38 20:28:26 18° 65° (ENE) 20:31:17 145.935
CUTE 1.7 + AOD 2 23 May 20:30:27 20:34:40 62° 259° (W) 20:38:57 437.475
CUBEBUG 2 23 May 20:34:06 20:38:12 68° 75° (ENE) 20:42:23 437.445
